SCP
0 0 0 0 0 0 0 -0 -0 -0 -0 -0 -0 -0 -0 -0 -0 0 0 0 0 0 0 0 0 0 0 0 0 0 0 0 0 0 0 0 0 0 0 0 0 0 0 0 0 0 0 0 0 0 0 0 0 0
0 0 0 0 0 0 0 0 0 0 0 0 -0 -0 -0 -0 -0 -0 0 0 0 0 0 0 0 0 0 0 0 0 0 0 0 0 0 0 0 0 0 0 0 0 0 0 0 0 0 0 0 0 0 0 0 0
0 0 0 0 0 0 0 0 0 0 0 0 0 0 -0 -0 -0 -0 0 0 0 0 0 0 0 0 0 0 0 0 0 0 0 0 0 0 0 0 0 0 0 0 0 0 0 0 0 0 0 0 0 0 0 0
0 0 0 0 0 0 0 0 0 0 0 0 0 0 0 0 -0 0 0 0 0 0 0 0 0 0 0 0 0 0 0 0 0 0 0 0 0 0 0 0 0 0 0 0 0 0 0 0 0 0 0 0 0 0
0 0 0 0 0 0 0 0 0 0 0 0 0 0 0 0 0 0 0 0 0 0 0 0 0 0 0 0 0 0 0 0 0 0 0 0 0 0 0 0 0 0 0 0 0 0 0 0 0 0 0 0 0 0
0 0 0 0 0 0 0 0 0 0 0 0 0 0 0 0 0 0 0 0 0 0 0 0 0 0 0 0 0 0 0 0 0 0 0 0 0 0 0 0 0 0 0 0 0 0 0 0 0 0 0 0 0 0
0 0 0 0 0 0 0 0 0 0 0 0 0 0 0 0 0 0 0 0 0 0 0 0 0 0 0 0 0 0 0 0 0 0 0 0 0 0 0 0 0 0 0 0 0 0 0 0 0 0 0 0 0 0
0 0 0 0 0 0 0 0 0 0 0 0 0 0 0 0 0 0 0 -0 0 0 0 0 0 0 0 0 0 0 0 0 0 0 0 0 0 0 0 0 0 0 0 0 0 0 0 0 -0 -0 -0 0 -0 0
0 0 0 0 0 0 0 0 0 0 0 0 0 0 0 0 0 0 0 0 0 0 0 0 0 0 0 -0 0 0 0 0 0 0 0 0 0 0 0 0 0 0 0 0 0 0 -0 -0 -0 -0 -0 -0 -0 0
0 0 0 0 0 0 0 0 0 0 0 0 0 0 -0 0 0 0 0 0 0 0 0 0 0 0 0 0 0 0 0 0 0 0 0 0 0 0 0 0 0 0 0 0 0 -0 0 0 0 -0 0 0 0 0
0 0 0 0 0 0 0 0 0 0 0 0 0 0 0 0 0 0 0 0 0 0 0 0 0 0 0 0 0 0 0 0 0 0 0 0 0 0 0 0 0 0 0 0 0 0 0 0 0 0 0 0 0 0
0 0 0 0 0 0 0 0 0 0 0 0 0 0 0 0 0 0 0 0 0 0 0 0 0 -0 0 0 0 0 0 0 0 0 0 0 0 0 0 0 0 0 0 0 0 -0 0 0 0 0 0 0 0 0
0 0 0 0 0 0 0 0 0 0 0 0 0 0 0 0 0 0 0 0 0 0 0 0 0 0 0 0 0 0 0 0 0 0 0 0 0 0 0 0 0 0 0 0 -0 0 0 0 0 0 0 0 0 0
0 0 0 0 0 0 0 0 0 0 0 0 0 0 0 0 0 0 0 0 0 0 0 -0 0 0 0 0 0 0 0 0 0 0 0 0 0 0 0 0 0 0 0 -0 0 0 0 0 0 0 0 0 -0 -0
0 0 0 0 0 0 0 0 0 0 0 0 0 0 0 0 0 0 0 0 0 0 0 0 0 0 0 0 0 0 0 0 0 0 0 0 0 0 0 0 -0 0 0 0 0 0 0 0 0 0 0 0 -0 -0
0 0 0 0 0 0 0 0 0 0 0 0 0 0 0 0 0 0 0 0 0 0 -0 0 0 0 0 0 0 0 0 0 0 0 0 0 0 0 0 -0 -0 0 0 0 0 0 0 0 -0 0 0 0 0 0
0 0 0 0 0 0 0 0 0 0 0 0 0 0 0 0 0 0 0 0 0 0 0 0 0 0 0 0 0 0 0 0 0 0 0 0 0 0 -0 -0 0 0 0 0 0 -0 0 0 -0 -0 0 0 0 0
0 0 0 0 0 0 0 0 0 0 0 0 0 0 0 0 0 0 0 0 0 0 0 0 0 0 0 0 0 0 0 0 0 0 0 0 0 0 -0 -0 0 0 0 0 0 0 -0 -0 -0 -0 -0 -0 0 0
0 0 0 0 0 0 0 0 0 0 0 0 0 0 0 0 0 0 0 0 0 0 0 0 0 0 0 0 0 0 0 0 0 0 0 0 0 -0 -0 -0 0 -0 -0 0 0 -0 -0 -0 -0 -0 -0 -0 -0 -0
0 0 0 0 0 0 0 0 0 0 0 0 0 0 0 0 0 0 0 0 0 0 0 0 0 0 -0 0 0 0 0 0 0 0 0 0 0 0 -0 -0 0 0 0 -0 -0 0 0 -0 -0 0 0 0 -0 -0
0 0 0 0 0 0 0 0 0 0 0 0 0 0 0 0 0 0 0 0 0 0 0 0 0 -0 -0 0 0 0 0 0 0 0 0 0 0 0 -0 -0 -0 0 0 0 0 0 0 0 0 0 0 0 0 0
0 0 0 0 0 0 0 0 0 0 0 0 0 0 0 0 0 0 0 0 0 0 0 0 -0 -0 -0 0 0 0 0 0 0 0 0 0 0 0 0 0 0 -0 0 0 0 0 0 -0 -0 0 0 0 0 0
0 0 0 0 0 0 0 0 0 0 0 0 0 0 0 0 0 0 0 0 -0 -0 -0 0 0 0 0 0 0 0 0 0 0 0 0 0 0 0 0 0 0 0 0 0 0 0 0 -0 0 0 0 0 0 0
0 0 0 0 0 0 0 0 0 0 0 0 0 0 0 0 0 0 0 0 0 0 0 0 0 0 0 0 0 0 0 0 0 0 -0 -0 0 0 0 0 0 0 0 -0 0 0 0 0 0 0 0 0 0 0
0 0 0 0 0 0 0 0 0 0 0 0 0 0 0 0 0 0 0 -0 -0 0 0 0 0 0 0 0 -0 0 0 0 0 0 -0 0 0 0 0 0 0 0 0 0 0 0 0 0 0 0 0 0 0 0
0 0 0 0 0 0 0 0 0 0 0 0 0 0 0 0 0 0 -0 -0 0 0 0 -0 -0 0 0 0 0 0 0 0 0 0 -0 0 -0 0 0 0 0 -0 0 0 0 0 -0 -0 -0 0 0 0 0 0
0 0 0 0 0 0 0 0 0 0 0 0 0 0 0 0 0 0 0 0 0 0 0 -0 -0 0 0 0 0 -0 -0 0 0 0 -0 0 -0 0 0 0 0 0 -0 0 0 0 0 0 0 0 0 0 0 0
0 0 0 0 0 0 0 0 0 0 0 0 0 0 0 0 0 0 0 0 -0 0 0 0 0 0 0 -0 -0 -0 0 0 -0 -0 0 0 0 0 0 0 0 0 -0 -0 -0 0 0 0 -0 0 0 0 0 0
0 0 0 0 0 0 0 0 0 0 0 0 0 0 0 0 0 0 0 0 0 -0 0 -0 -0 -0 0 0 0 0 0 -0 0 0 0 0 0 0 0 0 -0 0 0 0 0 -0 -0 -0 -0 -0 0 0 -0 0
0 0 0 0 0 0 0 0 -0 -0 -0 -0 -0 -0 0 0 0 0 0 0 0 0 0 0 -0 -0 -0 -0 -0 0 0 0 -0 -0 -0 -0 0 0 0 -0 0 0 -0 -0 0 0 0 0 0 0 0 0 0 0
0 -0 -0 0 0 0 0 -0 -0 -0 -0 -0 -0 0 0 0 0 -0 0 -0 0 0 0 0 0 0 0 -0 -0 -0 0 0 -0 0 0 0 0 0 0 0 -0 0 -0 -0 0 0 0 0 0 0 0 0 0 -0
0 -0 -0 0 0 0 -0 -0 0 0 0 0 0 0 -0 0 0 0 0 0 0 0 0 0 0 0 0 -0 -0 -0 -0 -0 -0 -0 -0 0 0 -0 -0 -0 -0 -0 0 -0 0 0 0 0 0 0 0 0 0 0
-0 -0 0 -0 -0 -0 0 0 0 0 0 0 0 0 0 0 0 0 0 0 0 0 0 0 0 0 0 -0 -0 0 -0 0 0 -0 -0 -0 0 0 0 0 0 -0 -0 0 0 0 0 0 0 0 0 0 0 -0
Wind_Speed_500mb
49 47 46 44 40 37 34 32 31 31 28 26 25 25 25 24 24 22 10 29 24 15 17 13 11 14 13 9 15 13 11 13 13 11 13 15 11 4 6 11 17 12 12 16 16 23 21 18 16 5 16 22 25 30
48 45 44 43 41 37 33 30 29 28 26 24 22 21 22 21 19 19 12 21 25 14 20 18 13 10 7 6 14 13 11 8 16 10 10 8 14 7 13 14 9 7 11 10 9 17 29 19 10 10 17 20 24 35
46 43 42 40 39 36 33 30 28 26 25 23 21 20 19 20 19 20 19 23 29 20 32 24 17 7 11 14 10 12 1 8 5 7 17 8 6 10 14 13 18 7 11 6 12 11 28 36 31 21 23 24 47 41
44 42 41 40 38 35 33 30 27 25 25 23 21 19 18 18 18 18 14 17 19 15 13 21 6 5 10 5 8 11 10 8 12 8 17 10 11 4 9 13 11 18 17 13 20 32 22 23 18 24 31 38 52 50
43 41 40 39 38 35 31 29 28 26 25 23 21 19 18 18 18 18 12 8 10 13 14 18 10 14 7 10 12 11 15 15 14 14 10 11 17 8 12 16 16 17 8 13 19 30 25 28 32 36 44 49 55 57
41 39 37 37 35 34 31 28 27 26 23 23 21 20 18 16 15 12 8 5 7 15 10 8 11 7 8 7 9 13 16 17 15 15 13 13 11 2 7 12 25 31 33 25 23 31 37 36 37 40 48 56 61 61
37 36 35 34 33 32 29 28 26 24 21 20 20 17 17 14 11 8 4 8 9 13 8 12 10 14 10 12 12 12 14 17 18 21 21 26 25 11 12 20 28 20 21 21 20 30 36 41 51 52 55 60 56 60
32 31 32 32 31 29 27 25 22 20 16 16 17 15 14 14 13 9 11 9 11 6 10 8 10 11 15 12 15 12 13 19 20 25 20 22 28 22 14 10 5 11 14 21 28 37 48 54 58 62 69 50 63 65
29 28 29 30 30 28 24 21 18 13 11 11 10 10 12 6 5 10 11 19 13 10 14 10 14 7 9 15 4 6 9 11 18 24 31 23 15 12 8 9 4 10 20 30 38 46 52 55 61 61 61 61 65 65
25 26 27 29 31 28 24 16 11 7 6 4 1 3 9 8 9 14 5 6 11 14 13 15 23 7 11 19 14 8 15 9 9 6 15 8 14 14 13 8 8 16 25 36 45 47 45 58 60 59 57 56 61 59
25 25 25 27 31 27 15 9 7 6 7 4 6 6 5 6 2 8 9 11 16 10 16 23 32 13 9 8 6 7 5 6 7 5 4 5 6 12 4 4 12 23 34 45 38 49 53 61 60 51 51 54 62 63
25 25 25 26 30 21 10 7 16 17 8 7 10 8 6 7 12 9 8 10 7 10 15 19 18 19 10 3 9 4 7 3 7 5 6 7 9 11 3 12 24 36 41 42 47 52 53 47 47 50 47 59 63 63
26 25 24 26 25 15 14 12 20 17 9 2 6 9 8 8 4 10 13 8 9 11 14 19 18 11 8 7 4 4 4 9 8 4 7 6 12 8 10 21 34 41 40 44 51 43 38 47 47 42 53 52 53 54
23 23 24 27 25 16 16 15 19 17 8 7 10 5 9 11 11 14 16 9 15 11 23 22 16 7 8 6 3 4 7 5 6 8 3 5 3 4 12 24 35 41 45 45 35 41 49 47 49 40 44 45 48 48
20 20 27 29 16 23 21 18 21 18 3 8 12 8 16 27 25 6 10 7 5 14 10 18 21 13 4 5 7 4 4 8 7 7 7 20 6 9 19 28 36 40 33 29 34 38 42 51 47 46 45 42 41 42
12 10 18 4 23 24 25 18 21 15 6 8 12 15 27 21 23 20 14 16 12 15 16 8 4 1 8 6 10 9 7 7 7 2 16 8 8 16 25 33 33 24 22 24 27 37 44 52 45 39 38 39 41 39
3 3 10 8 14 23 23 21 17 10 12 11 15 29 39 19 11 8 8 13 5 10 3 4 7 11 8 6 9 12 11 12 23 29 21 15 11 17 24 29 20 20 20 22 32 44 41 39 44 48 50 49 49 42
7 13 8 13 14 21 16 19 11 11 15 23 24 30 22 29 19 13 13 2 6 13 3 7 11 7 7 12 15 10 16 9 3 8 15 11 14 15 23 18 19 13 17 20 31 37 36 42 49 53 56 58 58 55
21 18 14 15 20 17 11 12 9 10 17 23 28 32 27 19 11 13 17 13 16 10 1 5 9 13 19 20 18 19 9 10 16 11 16 16 17 16 12 17 5 18 18 25 30 35 31 38 51 56 69 79 71 64
29 18 19 15 19 10 7 7 12 14 13 11 22 31 31 20 20 27 31 30 29 29 13 8 20 34 27 10 6 20 11 18 13 13 8 16 19 15 11 10 10 10 13 14 32 32 33 40 46 47 45 49 70 82
14 16 18 16 16 12 6 5 13 16 15 21 28 18 22 27 33 40 38 37 40 45 35 43 47 49 43 28 20 12 3 9 10 8 9 17 14 10 8 16 14 13 12 19 19 19 20 23 32 23 29 27 38 47
13 13 14 16 6 9 10 15 13 13 11 22 19 16 20 22 29 35 35 43 43 43 44 44 46 42 36 36 30 23 17 11 4 2 6 5 2 5 7 8 17 18 18 18 19 22 25 31 26 28 34 32 32 33
7 15 11 13 11 11 11 17 15 10 9 9 21 13 16 28 34 32 25 37 47 42 43 40 40 40 36 24 6 14 18 16 14 9 7 7 9 10 11 14 14 17 19 19 20 22 24 24 29 31 31 31 32 40
21 6 11 11 20 9 10 10 15 14 13 22 8 9 12 13 15 15 14 41 42 23 30 30 34 28 29 27 33 27 26 20 23 11 16 15 19 15 14 16 15 16 15 14 15 16 16 21 27 29 28 32 36 35
10 11 10 11 12 11 11 11 28 19 27 21 23 14 8 12 14 16 15 35 35 29 22 26 28 30 33 29 28 26 35 27 20 19 21 16 18 17 13 13 12 13 13 14 15 16 18 19 15 19 28 27 30 35
8 11 11 19 10 14 12 6 13 19 17 12 10 8 16 16 25 11 24 47 17 27 22 24 28 26 24 34 28 22 12 28 25 23 28 22 24 21 18 15 13 7 9 10 12 14 16 19 19 21 21 22 26 29
7 11 18 21 17 20 14 18 15 10 12 11 9 14 7 10 15 10 8 3 24 22 12 34 33 27 24 21 17 31 23 16 16 20 36 23 19 19 17 14 11 5 1 5 8 9 11 9 11 15 19 21 20 22
10 8 11 16 33 19 6 10 7 8 8 7 6 11 9 6 9 15 15 18 32 8 19 34 20 19 26 37 36 34 24 19 21 28 20 16 18 19 15 10 8 3 5 3 2 6 9 11 9 7 11 14 14 17
12 13 18 13 10 10 11 9 8 6 6 5 6 5 11 14 17 5 7 28 49 56 30 40 40 28 26 26 26 28 19 11 27 34 29 20 21 15 12 9 14 13 15 11 10 15 14 14 12 11 15 8 10 13
19 18 7 4 6 8 16 18 5 7 8 7 4 10 11 13 17 24 46 32 4 30 30 33 35 31 36 41 35 22 18 12 28 36 32 24 22 21 13 12 8 6 18 15 11 1 5 0 8 10 15 9 19 18
5 10 13 18 13 20 18 19 21 18 15 12 9 10 16 25 34 22 11 21 17 22 10 10 16 22 10 34 23 30 33 23 14 50 35 10 10 14 17 5 3 2 15 10 12 6 3 9 8 12 15 13 12 17
11 13 12 14 25 22 23 23 28 27 26 27 27 39 50 32 17 13 12 16 24 16 14 18 18 17 16 22 27 33 20 28 40 47 30 21 23 18 10 8 4 5 6 17 8 6 10 10 10 12 11 9 8 9
17 17 17 13 11 10 15 16 9 13 22 23 28 29 25 23 22 10 2 15 18 16 22 29 23 23 23 16 26 21 25 31 31 31 33 33 13 21 9 4 8 4 8 8 2 6 9 11 11 10 9 8 6 5
Wind_Direction_500mb
318 319 320 321 320 318 316 313 316 320 324 328 336 345 351 356 4 26 39 354 10 312 316 351 320 317 313 276 289 57 267 198 269 254 270 277 283 12 325 292 291 274 278 281 291 282 278 39 313 335 352 323 339 332
312 312 314 317 316 314 311 311 310 313 316 321 327 336 342 348 354 358 353 341 337 288 292 308 265 261 242 312 326 326 330 292 4 316 345 324 304 281 272 274 109 255 272 302 328 324 328 334 305 295 347 321 323 327
309 308 309 312 311 308 305 305 305 303 306 310 316 324 332 338 344 349 3 354 342 287 284 235 219 215 240 248 245 280 45 5 320 337 312 312 315 316 285 287 338 199 248 244 309 240 325 311 315 349 353 332 318 310
307 306 307 308 306 303 300 298 299 296 297 302 306 311 319 326 331 332 336 339 349 306 277 151 173 215 192 202 218 249 281 289 278 287 270 270 278 111 297 331 312 299 329 293 290 273 290 286 310 314 312 309 294 311
305 306 306 306 303 300 296 292 290 290 291 294 301 303 308 315 320 323 316 308 351 350 320 308 301 215 273 237 252 254 244 252 250 241 238 254 270 303 277 268 269 276 340 302 307 337 348 337 327 311 304 307 307 304
304 305 305 304 304 300 295 289 283 282 285 288 293 297 299 306 317 342 185 192 230 358 304 279 144 203 209 239 248 241 233 241 254 273 274 267 254 160 291 280 312 316 317 336 334 321 313 307 296 305 298 299 308 307
303 304 304 304 304 301 295 288 281 279 281 284 288 290 291 299 297 257 293 230 305 345 276 278 234 145 205 237 230 232 223 231 246 259 256 262 272 201 258 270 304 337 14 357 340 320 309 304 296 297 303 306 304 303
298 304 306 307 305 302 298 285 277 274 276 281 287 286 286 293 288 283 267 309 291 267 255 268 263 172 172 201 209 207 213 218 236 252 269 271 272 231 251 276 346 11 339 325 315 306 306 306 308 308 301 306 309 310
292 298 304 315 311 307 301 284 272 268 269 283 285 287 287 251 241 212 254 297 259 234 300 240 269 89 163 242 188 179 248 269 256 239 231 242 256 249 337 27 22 338 324 311 311 308 311 310 306 312 318 316 310 309
288 295 305 310 315 311 304 275 259 244 252 286 228 275 215 149 290 280 272 203 194 209 233 256 268 265 205 189 206 234 194 235 274 268 156 234 252 73 63 64 347 322 318 313 304 309 309 312 314 314 314 312 313 312
285 293 300 307 313 312 287 247 177 157 124 122 242 16 347 297 294 228 245 213 195 215 212 230 241 256 173 287 351 1 339 284 270 74 3 197 252 114 133 347 327 323 317 315 325 318 322 318 319 323 322 319 314 312
280 288 296 302 311 308 238 214 175 168 190 247 313 328 294 242 230 235 218 206 239 235 154 202 197 212 125 213 266 65 268 160 265 37 245 260 107 132 30 339 325 325 320 325 327 324 320 326 328 323 321 317 314 318
280 282 289 299 310 270 213 204 195 195 201 180 261 242 216 220 360 221 203 214 215 189 153 178 155 196 145 219 233 166 289 241 296 222 266 66 119 59 1 331 325 325 332 327 323 325 336 332 325 317 319 326 327 327
281 278 287 296 302 225 193 193 184 183 165 224 216 276 230 205 228 214 254 21 95 174 156 210 140 246 141 183 317 238 241 280 265 297 242 93 293 352 344 329 331 333 330 330 341 344 336 336 336 334 329 333 330 330
280 288 297 291 253 187 183 187 177 173 216 250 241 230 223 249 290 199 280 99 152 252 186 175 161 205 173 178 211 234 258 241 216 3 84 154 101 346 336 341 343 336 339 351 347 348 347 349 347 341 337 335 337 336
289 333 347 243 169 179 180 179 176 169 247 249 243 260 270 268 237 199 206 243 200 191 208 214 147 338 185 236 199 223 262 245 143 291 322 104 39 340 352 350 341 345 349 355 360 356 358 360 356 349 357 1 358 352
275 22 310 205 176 173 179 176 171 211 226 234 236 238 268 283 307 345 322 119 205 248 134 30 182 204 217 242 221 223 235 358 358 14 12 84 49 13 359 354 349 354 19 19 11 15 17 18 23 24 20 16 7 6
213 261 233 207 193 180 189 187 205 237 238 241 255 260 255 242 228 238 268 184 209 248 119 216 315 245 248 255 269 104 260 251 60 5 313 47 41 9 350 347 349 16 39 24 15 20 19 26 36 31 32 26 20 20
208 215 194 183 191 181 195 203 221 270 246 251 247 259 260 254 272 235 235 236 238 267 309 219 250 235 244 257 317 326 271 81 294 334 58 61 27 11 357 338 77 47 52 47 37 30 37 48 50 43 46 38 35 33
218 212 205 206 175 178 201 230 209 255 267 284 265 265 260 262 259 245 240 232 224 221 213 232 245 250 261 259 228 280 313 319 292 319 71 21 7 0 341 348 68 86 68 83 48 57 55 48 42 38 36 30 32 38
231 232 215 209 199 199 229 235 235 249 260 272 268 284 271 272 237 238 237 239 229 232 237 231 239 249 257 282 298 337 260 283 298 17 17 352 337 335 354 128 73 60 73 60 46 41 20 4 18 21 18 32 23 25
195 208 211 211 218 207 254 236 254 299 264 261 265 259 248 263 242 235 243 251 242 238 237 239 245 251 254 264 256 248 248 252 195 248 333 299 290 52 44 66 69 70 61 55 50 44 39 35 41 34 36 40 32 31
173 196 190 178 199 224 249 216 237 235 250 261 236 212 219 239 245 254 236 243 243 237 234 228 230 234 246 258 251 213 219 206 188 181 185 149 128 119 105 90 88 80 73 66 57 51 47 42 44 42 37 38 45 43
205 218 188 203 202 214 234 220 227 221 244 238 228 234 253 244 268 259 256 246 240 254 240 217 222 219 217 224 225 215 194 200 169 174 188 185 141 137 132 117 101 88 80 71 68 69 65 64 53 45 49 50 44 46
199 215 204 206 209 219 223 215 217 231 231 235 238 242 252 241 222 240 251 258 237 226 231 188 202 208 203 191 201 178 169 166 172 191 201 192 148 149 136 111 96 90 83 69 65 56 51 48 58 60 49 48 59 56
222 211 213 196 210 210 228 221 208 211 223 217 233 230 241 253 249 241 239 248 250 189 208 219 191 192 99 141 138 156 175 197 182 185 188 184 174 161 150 140 122 98 78 69 62 41 28 30 32 40 47 51 64 58
223 229 227 215 230 244 244 249 256 260 201 216 233 216 225 238 228 204 222 110 173 190 187 200 232 177 154 146 157 168 173 179 213 217 183 181 176 148 129 132 133 98 54 28 28 34 21 20 29 35 31 39 41 55
249 241 237 239 223 238 253 278 246 231 223 228 226 216 222 265 8 359 341 213 216 237 181 199 256 88 149 167 148 153 157 157 162 170 174 166 159 142 130 141 165 196 190 106 345 358 6 4 9 66 52 46 54 69
237 216 229 246 245 249 248 247 251 286 295 289 283 282 337 343 323 274 112 187 265 254 139 127 139 175 167 175 145 151 162 172 176 177 176 177 174 170 158 213 206 217 200 191 82 113 87 89 79 57 25 44 34 66
256 235 231 225 230 233 242 242 272 265 278 276 285 311 279 261 224 239 277 279 267 134 104 155 172 175 167 160 144 146 169 142 164 181 190 195 174 162 166 201 241 276 165 174 146 129 13 245 4 4 32 31 47 82
265 209 224 230 251 258 279 274 249 257 251 258 263 252 255 248 299 307 190 138 130 147 164 127 178 175 222 186 181 170 172 191 218 200 199 132 130 129 168 184 188 169 154 166 189 181 71 73 74 50 51 58 53 48
233 236 240 261 271 284 302 279 276 264 257 239 219 233 250 265 291 290 211 179 172 167 184 198 201 215 219 230 192 168 155 111 136 172 170 158 150 176 181 201 199 62 96 116 98 74 69 57 40 32 54 60 61 90
234 245 257 283 283 257 235 206 241 248 225 221 226 232 243 248 262 276 218 210 222 216 209 213 226 224 207 191 172 175 155 159 146 163 179 183 212 190 192 233 195 12 90 112 184 49 81 80 69 63 59 47 45 50
Wind_Speed_850mb
49 47 46 44 40 37 34 32 31 31 28 26 25 25 25 24 24 22 10 29 24 15 17 13 11 14 13 9 15 13 11 13 13 11 13 15 11 4 6 11 17 12 12 16 16 23 21 18 16 5 16 22 25 30
48 45 44 43 41 37 33 30 29 28 26 24 22 21 22 21 19 19 12 21 25 14 20 18 13 10 7 6 14 13 11 8 16 10 10 8 14 7 13 14 9 7 11 10 9 17 29 19 10 10 17 20 24 35
46 43 42 40 39 36 33 30 28 26 25 23 21 20 19 20 19 20 19 23 29 20 32 24 17 7 11 14 10 12 1 8 5 7 17 8 6 10 14 13 18 7 11 6 12 11 28 36 31 21 23 24 47 41
44 42 41 40 38 35 33 30 27 25 25 23 21 19 18 18 18 18 14 17 19 15 13 21 6 5 10 5 8 11 10 8 12 8 17 10 11 4 9 13 11 18 17 13 20 32 22 23 18 24 31 38 52 50
43 41 40 39 38 35 31 29 28 26 25 23 21 19 18 18 18 18 12 8 10 13 14 18 10 14 7 10 12 11 15 15 14 14 10 11 17 8 12 16 16 17 8 13 19 30 25 28 32 36 44 49 55 57
41 39 37 37 35 34 31 28 27 26 23 23 21 20 18 16 15 12 8 5 7 15 10 8 11 7 8 7 9 13 16 17 15 15 13 13 11 2 7 12 25 31 33 25 23 31 37 36 37 40 48 56 61 61
37 36 35 34 33 32 29 28 26 24 21 20 20 17 17 14 11 8 4 8 9 13 8 12 10 14 10 12 12 12 14 17 18 21 21 26 25 11 12 20 28 20 21 21 20 30 36 41 51 52 55 60 56 60
32 31 32 32 31 29 27 25 22 20 16 16 17 15 14 14 13 9 11 9 11 6 10 8 10 11 15 12 15 12 13 19 20 25 20 22 28 22 14 10 5 11 14 21 28 37 48 54 58 62 69 50 63 65
29 28 29 30 30 28 24 21 18 13 11 11 10 10 12 6 5 10 11 19 13 10 14 10 14 7 9 15 4 6 9 11 18 24 31 23 15 12 8 9 4 10 20 30 38 46 52 55 61 61 61 61 65 65
25 26 27 29 31 28 24 16 11 7 6 4 1 3 9 8 9 14 5 6 11 14 13 15 23 7 11 19 14 8 15 9 9 6 15 8 14 14 13 8 8 16 25 36 45 47 45 58 60 59 57 56 61 59
25 25 25 27 31 27 15 9 7 6 7 4 6 6 5 6 2 8 9 11 16 10 16 23 32 13 9 8 6 7 5 6 7 5 4 5 6 12 4 4 12 23 34 45 38 49 53 61 60 51 51 54 62 63
25 25 25 26 30 21 10 7 16 17 8 7 10 8 6 7 12 9 8 10 7 10 15 19 18 19 10 3 9 4 7 3 7 5 6 7 9 11 3 12 24 36 41 42 47 52 53 47 47 50 47 59 63 63
26 25 24 26 25 15 14 12 20 17 9 2 6 9 8 8 4 10 13 8 9 11 14 19 18 11 8 7 4 4 4 9 8 4 7 6 12 8 10 21 34 41 40 44 51 43 38 47 47 42 53 52 53 54
23 23 24 27 25 16 16 15 19 17 8 7 10 5 9 11 11 14 16 9 15 11 23 22 16 7 8 6 3 4 7 5 6 8 3 5 3 4 12 24 35 41 45 45 35 41 49 47 49 40 44 45 48 48
20 20 27 29 16 23 21 18 21 18 3 8 12 8 16 27 25 6 10 7 5 14 10 18 21 13 4 5 7 4 4 8 7 7 7 20 6 9 19 28 36 40 33 29 34 38 42 51 47 46 45 42 41 42
12 10 18 4 23 24 25 18 21 15 6 8 12 15 27 21 23 20 14 16 12 15 16 8 4 1 8 6 10 9 7 7 7 2 16 8 8 16 25 33 33 24 22 24 27 37 44 52 45 39 38 39 41 39
3 3 10 8 14 23 23 21 17 10 12 11 15 29 39 19 11 8 8 13 5 10 3 4 7 11 8 6 9 12 11 12 23 29 21 15 11 17 24 29 20 20 20 22 32 44 41 39 44 48 50 49 49 42
7 13 8 13 14 21 16 19 11 11 15 23 24 30 22 29 19 13 13 2 6 13 3 7 11 7 7 12 15 10 16 9 3 8 15 11 14 15 23 18 19 13 17 20 31 37 36 42 49 53 56 58 58 55
21 18 14 15 20 17 11 12 9 10 17 23 28 32 27 19 11 13 17 13 16 10 1 5 9 13 19 20 18 19 9 10 16 11 16 16 17 16 12 17 5 18 18 25 30 35 31 38 51 56 69 79 71 64
29 18 19 15 19 10 7 7 12 14 13 11 22 31 31 20 20 27 31 30 29 29 13 8 20 34 27 10 6 20 11 18 13 13 8 16 19 15 11 10 10 10 13 14 32 32 33 40 46 47 45 49 70 82
14 16 18 16 16 12 6 5 13 16 15 21 28 18 22 27 33 40 38 37 40 45 35 43 47 49 43 28 20 12 3 9 10 8 9 17 14 10 8 16 14 13 12 19 19 19 20 23 32 23 29 27 38 47
13 13 14 16 6 9 10 15 13 13 11 22 19 16 20 22 29 35 35 43 43 43 44 44 46 42 36 36 30 23 17 11 4 2 6 5 2 5 7 8 17 18 18 18 19 22 25 31 26 28 34 32 32 33
7 15 11 13 11 11 11 17 15 10 9 9 21 13 16 28 34 32 25 37 47 42 43 40 40 40 36 24 6 14 18 16 14 9 7 7 9 10 11 14 14 17 19 19 20 22 24 24 29 31 31 31 32 40
21 6 11 11 20 9 10 10 15 14 13 22 8 9 12 13 15 15 14 41 42 23 30 30 34 28 29 27 33 27 26 20 23 11 16 15 19 15 14 16 15 16 15 14 15 16 16 21 27 29 28 32 36 35
10 11 10 11 12 11 11 11 28 19 27 21 23 14 8 12 14 16 15 35 35 29 22 26 28 30 33 29 28 26 35 27 20 19 21 16 18 17 13 13 12 13 13 14 15 16 18 19 15 19 28 27 30 35
8 11 11 19 10 14 12 6 13 19 17 12 10 8 16 16 25 11 24 47 17 27 22 24 28 26 24 34 28 22 12 28 25 23 28 22 24 21 18 15 13 7 9 10 12 14 16 19 19 21 21 22 26 29
7 11 18 21 17 20 14 18 15 10 12 11 9 14 7 10 15 10 8 3 24 22 12 34 33 27 24 21 17 31 23 16 16 20 36 23 19 19 17 14 11 5 1 5 8 9 11 9 11 15 19 21 20 22
10 8 11 16 33 19 6 10 7 8 8 7 6 11 9 6 9 15 15 18 32 8 19 34 20 19 26 37 36 34 24 19 21 28 20 16 18 19 15 10 8 3 5 3 2 6 9 11 9 7 11 14 14 17
12 13 18 13 10 10 11 9 8 6 6 5 6 5 11 14 17 5 7 28 49 56 30 40 40 28 26 26 26 28 19 11 27 34 29 20 21 15 12 9 14 13 15 11 10 15 14 14 12 11 15 8 10 13
19 18 7 4 6 8 16 18 5 7 8 7 4 10 11 13 17 24 46 32 4 30 30 33 35 31 36 41 35 22 18 12 28 36 32 24 22 21 13 12 8 6 18 15 11 1 5 0 8 10 15 9 19 18
5 10 13 18 13 20 18 19 21 18 15 12 9 10 16 25 34 22 11 21 17 22 10 10 16 22 10 34 23 30 33 23 14 50 35 10 10 14 17 5 3 2 15 10 12 6 3 9 8 12 15 13 12 17
11 13 12 14 25 22 23 23 28 27 26 27 27 39 50 32 17 13 12 16 24 16 14 18 18 17 16 22 27 33 20 28 40 47 30 21 23 18 10 8 4 5 6 17 8 6 10 10 10 12 11 9 8 9
17 17 17 13 11 10 15 16 9 13 22 23 28 29 25 23 22 10 2 15 18 16 22 29 23 23 23 16 26 21 25 31 31 31 33 33 13 21 9 4 8 4 8 8 2 6 9 11 11 10 9 8 6 5
Wind_Direction_850mb
318 319 320 321 320 318 316 313 316 320 324 328 336 345 351 356 4 26 39 354 10 312 316 351 320 317 313 276 289 57 267 198 269 254 270 277 283 12 325 292 291 274 278 281 291 282 278 39 313 335 352 323 339 332
312 312 314 317 316 314 311 311 310 313 316 321 327 336 342 348 354 358 353 341 337 288 292 308 265 261 242 312 326 326 330 292 4 316 345 324 304 281 272 274 109 255 272 302 328 324 328 334 305 295 347 321 323 327
309 308 309 312 311 308 305 305 305 303 306 310 316 324 332 338 344 349 3 354 342 287 284 235 219 215 240 248 245 280 45 5 320 337 312 312 315 316 285 287 338 199 248 244 309 240 325 311 315 349 353 332 318 310
307 306 307 308 306 303 300 298 299 296 297 302 306 311 319 326 331 332 336 339 349 306 277 151 173 215 192 202 218 249 281 289 278 287 270 270 278 111 297 331 312 299 329 293 290 273 290 286 310 314 312 309 294 311
305 306 306 306 303 300 296 292 290 290 291 294 301 303 308 315 320 323 316 308 351 350 320 308 301 215 273 237 252 254 244 252 250 241 238 254 270 303 277 268 269 276 340 302 307 337 348 337 327 311 304 307 307 304
304 305 305 304 304 300 295 289 283 282 285 288 293 297 299 306 317 342 185 192 230 358 304 279 144 203 209 239 248 241 233 241 254 273 274 267 254 160 291 280 312 316 317 336 334 321 313 307 296 305 298 299 308 307
303 304 304 304 304 301 295 288 281 279 281 284 288 290 291 299 297 257 293 230 305 345 276 278 234 145 205 237 230 232 223 231 246 259 256 262 272 201 258 270 304 337 14 357 340 320 309 304 296 297 303 306 304 303
298 304 306 307 305 302 298 285 277 274 276 281 287 286 286 293 288 283 267 309 291 267 255 268 263 172 172 201 209 207 213 218 236 252 269 271 272 231 251 276 346 11 339 325 315 306 306 306 308 308 301 306 309 310
292 298 304 315 311 307 301 284 272 268 269 283 285 287 287 251 241 212 254 297 259 234 300 240 269 89 163 242 188 179 248 269 256 239 231 242 256 249 337 27 22 338 324 311 311 308 311 310 306 312 318 316 310 309
288 295 305 310 315 311 304 275 259 244 252 286 228 275 215 149 290 280 272 203 194 209 233 256 268 265 205 189 206 234 194 235 274 268 156 234 252 73 63 64 347 322 318 313 304 309 309 312 314 314 314 312 313 312
285 293 300 307 313 312 287 247 177 157 124 122 242 16 347 297 294 228 245 213 195 215 212 230 241 256 173 287 351 1 339 284 270 74 3 197 252 114 133 347 327 323 317 315 325 318 322 318 319 323 322 319 314 312
280 288 296 302 311 308 238 214 175 168 190 247 313 328 294 242 230 235 218 206 239 235 154 202 197 212 125 213 266 65 268 160 265 37 245 260 107 132 30 339 325 325 320 325 327 324 320 326 328 323 321 317 314 318
280 282 289 299 310 270 213 204 195 195 201 180 261 242 216 220 360 221 203 214 215 189 153 178 155 196 145 219 233 166 289 241 296 222 266 66 119 59 1 331 325 325 332 327 323 325 336 332 325 317 319 326 327 327
281 278 287 296 302 225 193 193 184 183 165 224 216 276 230 205 228 214 254 21 95 174 156 210 140 246 141 183 317 238 241 280 265 297 242 93 293 352 344 329 331 333 330 330 341 344 336 336 336 334 329 333 330 330
280 288 297 291 253 187 183 187 177 173 216 250 241 230 223 249 290 199 280 99 152 252 186 175 161 205 173 178 211 234 258 241 216 3 84 154 101 346 336 341 343 336 339 351 347 348 347 349 347 341 337 335 337 336
289 333 347 243 169 179 180 179 176 169 247 249 243 260 270 268 237 199 206 243 200 191 208 214 147 338 185 236 199 223 262 245 143 291 322 104 39 340 352 350 341 345 349 355 360 356 358 360 356 349 357 1 358 352
275 22 310 205 176 173 179 176 171 211 226 234 236 238 268 283 307 345 322 119 205 248 134 30 182 204 217 242 221 223 235 358 358 14 12 84 49 13 359 354 349 354 19 19 11 15 17 18 23 24 20 16 7 6
213 261 233 207 193 180 189 187 205 237 238 241 255 260 255 242 228 238 268 184 209 248 119 216 315 245 248 255 269 104 260 251 60 5 313 47 41 9 350 347 349 16 39 24 15 20 19 26 36 31 32 26 20 20
208 215 194 183 191 181 195 203 221 270 246 251 247 259 260 254 272 235 235 236 238 267 309 219 250 235 244 257 317 326 271 81 294 334 58 61 27 11 357 338 77 47 52 47 37 30 37 48 50 43 46 38 35 33
218 212 205 206 175 178 201 230 209 255 267 284 265 265 260 262 259 245 240 232 224 221 213 232 245 250 261 259 228 280 313 319 292 319 71 21 7 0 341 348 68 86 68 83 48 57 55 48 42 38 36 30 32 38
231 232 215 209 199 199 229 235 235 249 260 272 268 284 271 272 237 238 237 239 229 232 237 231 239 249 257 282 298 337 260 283 298 17 17 352 337 335 354 128 73 60 73 60 46 41 20 4 18 21 18 32 23 25
195 208 211 211 218 207 254 236 254 299 264 261 265 259 248 263 242 235 243 251 242 238 237 239 245 251 254 264 256 248 248 252 195 248 333 299 290 52 44 66 69 70 61 55 50 44 39 35 41 34 36 40 32 31
173 196 190 178 199 224 249 216 237 235 250 261 236 212 219 239 245 254 236 243 243 237 234 228 230 234 246 258 251 213 219 206 188 181 185 149 128 119 105 90 88 80 73 66 57 51 47 42 44 42 37 38 45 43
205 218 188 203 202 214 234 220 227 221 244 238 228 234 253 244 268 259 256 246 240 254 240 217 222 219 217 224 225 215 194 200 169 174 188 185 141 137 132 117 101 88 80 71 68 69 65 64 53 45 49 50 44 46
199 215 204 206 209 219 223 215 217 231 231 235 238 242 252 241 222 240 251 258 237 226 231 188 202 208 203 191 201 178 169 166 172 191 201 192 148 149 136 111 96 90 83 69 65 56 51 48 58 60 49 48 59 56
222 211 213 196 210 210 228 221 208 211 223 217 233 230 241 253 249 241 239 248 250 189 208 219 191 192 99 141 138 156 175 197 182 185 188 184 174 161 150 140 122 98 78 69 62 41 28 30 32 40 47 51 64 58
223 229 227 215 230 244 244 249 256 260 201 216 233 216 225 238 228 204 222 110 173 190 187 200 232 177 154 146 157 168 173 179 213 217 183 181 176 148 129 132 133 98 54 28 28 34 21 20 29 35 31 39 41 55
249 241 237 239 223 238 253 278 246 231 223 228 226 216 222 265 8 359 341 213 216 237 181 199 256 88 149 167 148 153 157 157 162 170 174 166 159 142 130 141 165 196 190 106 345 358 6 4 9 66 52 46 54 69
237 216 229 246 245 249 248 247 251 286 295 289 283 282 337 343 323 274 112 187 265 254 139 127 139 175 167 175 145 151 162 172 176 177 176 177 174 170 158 213 206 217 200 191 82 113 87 89 79 57 25 44 34 66
256 235 231 225 230 233 242 242 272 265 278 276 285 311 279 261 224 239 277 279 267 134 104 155 172 175 167 160 144 146 169 142 164 181 190 195 174 162 166 201 241 276 165 174 146 129 13 245 4 4 32 31 47 82
265 209 224 230 251 258 279 274 249 257 251 258 263 252 255 248 299 307 190 138 130 147 164 127 178 175 222 186 181 170 172 191 218 200 199 132 130 129 168 184 188 169 154 166 189 181 71 73 74 50 51 58 53 48
233 236 240 261 271 284 302 279 276 264 257 239 219 233 250 265 291 290 211 179 172 167 184 198 201 215 219 230 192 168 155 111 136 172 170 158 150 176 181 201 199 62 96 116 98 74 69 57 40 32 54 60 61 90
234 245 257 283 283 257 235 206 241 248 225 221 226 232 243 248 262 276 218 210 222 216 209 213 226 224 207 191 172 175 155 159 146 163 179 183 212 190 192 233 195 12 90 112 184 49 81 80 69 63 59 47 45 50